1496073600.17,45074,23.81,74266.3,13.97,-23.99,-23.89,0,*42
1496073601.45,45075,23.81,74264.5,13.95,-23.99,-23.99,0,*40
1496073602.68,45076,23.81,74264.8,13.97,-23.99,-23.89,0,*40
1496073603.88,45077,23.81,74266.8,13.97,-24.61,-24.61,0,*40
1496073605.16,45078,23.81,74266.5,13.95,-23.99,-23.95,0,*41
1496073606.38,45079,23.81,74264.5,13.97,-23.65,-23.59,0,*41
1496073607.62,45080,23.81,74264.5,13.95,-23.79,-23.75,0,*46
1496073608.87,45081,23.81,74264.5,13.97,-23.33,-23.29,0,*42
1496073610.07,45082,23.81,74266.0,13.97,-23.13,-23.13,0,*4A
1496073611.29,45083,23.81,74264.0,14.01,-23.43,-23.43,0,*43
1496073612.54,45084,23.81,74262.5,13.99,-24.97,-24.83,0,*47
1496073613.77,45085,23.81,74266.8,13.99,-25.49,-25.39,0,*44
1496073615.0,45086,23.81,74262.8,13.99,-24.97,-24.97,0,*40
1496073616.22,45087,23.81,74266.8,13.95,-25.39,-25.23,0,*46
1496073617.45,45088,23.81,74266.8,13.97,-25.03,-24.93,0,*48
1496073618.65,45089,23.81,74262.0,13.97,-25.91,-25.91,0,*41
1496073619.94,45090,23.81,74262.0,13.95,-25.71,-25.75,0,*4F
1496073621.17,45091,23.81,74264.0,13.93,-25.97,-25.91,0,*4A
1496073622.4,45092,23.81,74262.8,13.91,-25.23,-25.23,0,*4D
1496073623.64,45093,23.81,74262.8,13.89,-25.65,-25.55,0,*46
1496073624.88,45094,23.81,74266.3,13.89,-26.03,-26.13,0,*43
1496073626.12,45095,23.81,74260.5,13.91,-26.03,-26.03,0,*4A
1496073627.37,45096,23.81,74262.8,13.87,-25.29,-25.29,0,*4E
1496073628.58,45097,23.81,74262.5,13.89,-25.13,-25.13,0,*41
1496073629.81,45098,23.81,74260.8,13.87,-25.09,-25.03,0,*4A
1496073631.04,45099,23.81,74264.0,13.85,-26.49,-26.61,0,*49
1496073632.3,45100,23.81,74260.5,13.81,-26.65,-26.71,0,*43
1496073633.53,45101,23.81,74264.5,13.79,-25.87,-25.81,0,*46
1496073634.79,45102,23.81,74266.8,13.79,-24.83,-24.71,0,*4E
1496073636.05,45103,23.81,74266.0,13.79,-23.99,-23.85,0,*4F
1496073637.3,45104,23.81,74264.0,13.81,-23.85,-23.75,0,*4D
1496073638.58,45105,23.81,74266.0,13.81,-24.21,-24.15,0,*44
1496073639.87,45106,23.81,74262.3,13.81,-24.25,-24.21,0,*44
1496073641.14,45107,23.81,74266.5,13.85,-24.31,-24.21,0,*44
1496073642.43,45108,23.81,74266.5,13.81,-24.71,-24.83,0,*43
1496073643.66,45109,23.81,74264.0,13.81,-24.35,-24.35,0,*4F
1496073644.89,45110,23.81,74264.0,13.85,-24.77,-24.77,0,*43
1496073646.13,45111,23.81,74262.5,13.85,-25.13,-25.13,0,*42
1496073647.41,45112,23.81,74260.5,13.85,-24.83,-24.83,0,*41
1496073648.66,45113,23.81,74264.0,13.81,-25.29,-25.19,0,*47
1496073649.92,45114,23.81,74264.8,13.79,-24.83,-24.87,0,*40
1496073651.18,45115,23.81,74264.3,13.81,-24.51,-24.41,0,*43
1496073652.44,45116,23.81,74268.3,13.81,-24.25,-24.35,0,*40
1496073653.67,45117,23.81,74264.5,13.79,-24.35,-24.25,0,*46
1496073654.9,45118,23.81,74266.5,13.79,-24.67,-24.57,0,*4B
1496073656.16,45119,23.81,74266.0,13.79,-24.41,-24.25,0,*4B
1496073657.4,45120,23.81,74264.3,13.79,-24.41,-24.57,0,*44
1496073658.61,45121,23.81,74264.0,13.79,-24.51,-24.51,0,*42
1496073659.81,45122,23.81,74264.0,13.79,-24.97,-24.97,0,*41
1496073661.08,45123,23.81,74264.5,13.77,-24.71,-24.61,0,*4F
1496073662.31,45124,23.81,74266.3,13.79,-24.35,-24.25,0,*46
1496073663.58,45125,23.81,74268.3,13.79,-24.25,-24.21,0,*42
1496073664.84,45126,23.81,74264.3,13.79,-24.21,-24.15,0,*42
1496073666.06,45127,23.81,74264.5,13.79,-24.15,-24.05,0,*45
1496073667.33,45128,23.81,74264.8,13.81,-23.69,-23.69,0,*4C
1496073668.62,45129,23.81,74264.5,13.81,-24.25,-24.25,0,*4D
1496073669.9,45130,23.81,74264.5,13.81,-24.15,-24.21,0,*42
1496073671.18,45131,23.81,74264.5,13.81,-23.85,-23.85,0,*44
1496073672.44,45132,23.81,74264.3,13.81,-23.59,-23.53,0,*4D
1496073673.69,45133,23.81,74264.8,13.85,-23.39,-23.33,0,*48
1496073674.94,45134,23.81,74264.3,13.85,-23.39,-23.33,0,*4F
1496073676.22,45135,23.81,74264.8,13.85,-23.19,-23.19,0,*44
1496073677.47,45136,23.81,74266.8,13.87,-23.29,-23.29,0,*45
1496073678.7,45137,23.81,74264.8,13.85,-23.13,-23.13,0,*46
1496073679.9,45138,23.81,74262.0,13.87,-23.13,-23.13,0,*4B
1496073681.14,45139,23.81,74264.0,13.89,-23.09,-23.03,0,*4E
1496073682.38,45140,23.81,74264.0,13.89,-23.53,-23.43,0,*4B
1496073683.61,45141,23.81,74268.3,13.89,-23.69,-23.75,0,*46
1496073684.82,45142,23.81,74264.0,13.89,-23.43,-23.39,0,*45
1496073686.02,45143,23.81,74264.0,13.87,-23.79,-23.89,0,*48
1496073687.24,45144,23.81,74264.5,13.89,-23.69,-23.75,0,*43
1496073688.51,45145,23.81,74266.3,13.89,-23.85,-23.85,0,*4F
1496073689.73,45146,23.81,74266.8,13.89,-23.59,-23.69,0,*4F
1496073690.96,45147,23.81,74264.3,13.89,-23.59,-23.53,0,*47
1496073692.2,45148,23.81,74266.3,13.89,-23.43,-23.53,0,*43
1496073693.45,45149,23.81,74268.8,13.89,-24.67,-24.67,0,*43
1496073694.65,45150,23.81,74264.8,13.89,-24.97,-24.97,0,*4B
1496073695.85,45151,23.81,74268.8,13.87,-25.19,-25.19,0,*44
1496073697.1,45152,23.81,74264.0,13.89,-24.11,-24.11,0,*49
1496073698.34,45153,23.81,74268.0,13.87,-24.25,-24.31,0,*43
1496073699.54,45154,23.81,74268.5,13.87,-24.77,-24.77,0,*41
1496073700.75,45155,23.81,74266.8,13.87,-24.77,-24.77,0,*40
1496073702.01,45156,23.81,74266.3,13.85,-24.83,-24.77,0,*4A
1496073703.24,45157,23.81,74264.5,13.85,-24.35,-24.35,0,*40
1496073704.48,45158,23.81,74266.5,13.85,-24.51,-24.47,0,*48
1496073705.76,45159,23.81,74270.8,13.85,-24.11,-24.11,0,*4E
1496073707.04,45160,23.81,74268.0,13.85,-23.99,-23.99,0,*44
1496073708.29,45161,23.81,74268.8,13.81,-24.15,-24.05,0,*40
1496073709.52,45162,23.81,74270.5,13.85,-24.35,-24.47,0,*43
1496073710.73,45163,23.81,74268.0,13.87,-24.35,-24.31,0,*41
1496073711.97,45164,23.81,74270.0,13.85,-24.31,-24.31,0,*40
1496073713.24,45165,23.81,74268.8,13.85,-24.15,-24.11,0,*45
1496073714.51,45166,23.81,74270.0,13.85,-24.15,-24.15,0,*42
1496073715.77,45167,23.81,74264.5,13.85,-23.85,-23.79,0,*40
1496073717.0,45168,23.81,74266.3,13.87,-23.59,-23.49,0,*4F
1496073718.28,45169,23.81,74266.5,13.85,-23.53,-23.53,0,*4D
1496073719.52,45170,23.81,74268.8,13.85,-24.51,-24.51,0,*45
1496073720.74,45171,23.81,74264.5,13.85,-24.97,-24.93,0,*40
1496073721.97,45172,23.88,74272.0,13.81,-24.57,-24.51,0,*45
1496073723.26,45173,23.81,74266.3,13.85,-24.21,-24.21,0,*46
1496073724.5,45174,23.81,74270.5,13.85,-24.47,-24.31,0,*40
1496073725.79,45175,23.81,74268.3,13.85,-24.21,-24.25,0,*44
1496073727.05,45176,23.88,74270.8,13.85,-24.67,-24.77,0,*42
1496073728.32,45177,23.81,74268.3,13.85,-24.15,-24.11,0,*46
1496073729.6,45178,23.81,74266.0,13.85,-23.65,-23.53,0,*48
1496073730.88,45179,23.81,74266.8,13.85,-23.53,-23.49,0,*47
1496073732.17,45180,23.81,74270.0,13.85,-23.23,-23.23,0,*4A
1496073733.46,45181,23.81,74268.3,13.85,-24.21,-24.21,0,*4B
1496073734.72,45182,23.81,74266.5,13.87,-24.71,-24.71,0,*4A
1496073735.92,45183,23.81,74268.3,13.87,-23.89,-23.79,0,*44
1496073737.19,45184,23.81,74270.8,13.85,-23.69,-23.65,0,*42
1496073738.44,45185,23.81,74268.8,13.87,-23.65,-23.53,0,*48
1496073739.66,45186,23.81,74270.8,13.89,-23.69,-23.59,0,*43
1496073740.89,45187,23.81,74270.0,13.87,-23.75,-23.65,0,*4E
1496073742.11,45188,23.81,74270.0,13.87,-23.89,-23.95,0,*4D
1496073743.32,45189,23.81,74264.3,13.87,-23.89,-23.75,0,*42
1496073744.57,45190,23.81,74268.0,13.87,-23.29,-23.19,0,*4A
1496073745.83,45191,23.81,74268.8,13.89,-23.03,-23.03,0,*46
1496073747.08,45192,23.81,74268.0,13.89,-23.29,-23.29,0,*45
1496073748.3,45193,23.81,74266.5,13.89,-23.43,-23.43,0,*44
1496073749.58,45194,23.81,74266.5,13.91,-23.29,-23.29,0,*4A
1496073750.81,45195,23.81,74268.5,13.93,-23.09,-23.03,0,*43
1496073752.02,45196,23.81,74266.0,13.93,-22.97,-22.87,0,*4B
1496073753.26,45197,23.81,74268.3,13.93,-23.19,-23.09,0,*4A
1496073754.52,45198,23.81,74270.0,13.95,-23.03,-22.97,0,*4E
1496073755.75,45199,23.81,74266.3,13.95,-23.13,-23.13,0,*43
1496073756.99,45200,23.81,74268.0,13.95,-24.31,-24.47,0,*41
1496073758.24,45201,23.88,74270.0,13.95,-23.79,-23.65,0,*4C
1496073759.52,45202,23.81,74270.0,13.95,-23.65,-23.65,0,*42
1496073760.76,45203,23.81,74264.5,13.95,-23.43,-23.43,0,*43
1496073761.99,45204,23.81,74266.8,13.95,-23.79,-23.75,0,*48
1496073763.23,45205,23.81,74270.3,13.95,-24.47,-24.47,0,*45
1496073764.51,45206,23.81,74266.5,13.95,-24.15,-24.25,0,*45
1496073765.74,45207,23.81,74268.0,13.93,-24.05,-23.99,0,*43
1496073766.97,45208,23.81,74270.5,13.93,-23.79,-23.69,0,*4F
1496073768.2,45209,23.81,74268.8,13.95,-24.77,-24.77,0,*49
1496073769.46,45210,23.81,74266.5,13.95,-24.57,-24.41,0,*46
1496073770.69,45211,23.81,74266.5,13.93,-24.05,-23.99,0,*44
1496073771.9,45212,23.81,74266.8,13.93,-24.31,-24.31,0,*45
1496073773.16,45213,23.81,74268.5,13.91,-23.99,-23.75,0,*44
1496073774.39,45214,23.88,74270.0,13.93,-23.79,-23.69,0,*42
1496073775.68,45215,23.81,74270.3,13.91,-24.25,-24.21,0,*44
1496073776.91,45216,23.81,74264.8,13.93,-25.03,-25.13,0,*40
1496073778.14,45217,23.81,74268.5,13.91,-25.39,-25.35,0,*4E
1496073779.42,45218,23.88,74268.3,13.91,-24.67,-24.83,0,*47
1496073780.7,45219,23.81,74264.8,13.91,-24.21,-24.11,0,*4F
1496073781.96,45220,23.81,74266.5,13.91,-24.05,-23.99,0,*44
1496073783.21,45221,23.81,74264.5,13.91,-24.11,-24.05,0,*42
1496073784.49,45222,23.88,74268.3,13.91,-24.21,-24.11,0,*47
1496073785.75,45223,23.88,74268.3,13.91,-24.35,-24.25,0,*44
1496073786.98,45224,23.81,74264.8,13.91,-24.35,-24.35,0,*42
1496073788.25,45225,23.81,74268.3,13.89,-24.25,-24.21,0,*4E
1496073789.53,45226,23.81,74268.8,13.91,-23.99,-23.99,0,*40
1496073790.74,45227,23.88,74268.3,13.93,-23.75,-23.75,0,*43
1496073791.98,45228,23.88,74270.8,13.91,-24.35,-24.35,0,*4E
1496073793.22,45229,23.88,74270.8,13.87,-23.95,-23.95,0,*48
1496073794.45,45230,23.88,74270.5,13.91,-24.05,-24.05,0,*47
1496073795.71,45231,23.81,74266.5,13.89,-24.83,-24.83,0,*4F
1496073796.95,45232,23.88,74268.0,13.89,-24.51,-24.67,0,*49
1496073798.19,45233,23.88,74268.5,13.89,-24.25,-24.05,0,*4F
1496073799.42,45234,23.88,74268.5,13.89,-24.57,-24.67,0,*49
1496073800.67,45235,23.81,74268.0,13.87,-25.03,-25.03,0,*45
1496073801.88,45236,23.81,74266.5,13.87,-24.47,-24.31,0,*47
1496073803.14,45237,23.88,74268.3,13.89,-24.41,-24.41,0,*49
1496073804.39,45238,23.81,74264.3,13.87,-24.11,-23.95,0,*43
1496073805.65,45239,23.88,74268.0,13.89,-23.19,-23.03,0,*4C
1496073806.86,45240,23.88,74270.3,13.89,-23.75,-23.75,0,*49
1496073808.12,45241,23.88,74268.5,13.87,-24.83,-24.87,0,*42
1496073809.35,45242,23.81,74266.3,13.87,-24.47,-24.41,0,*43
1496073810.58,45243,23.81,74264.5,13.87,-23.65,-23.59,0,*4B
1496073811.78,45244,23.81,74264.5,13.87,-24.57,-24.61,0,*46
1496073812.98,45245,23.88,74266.0,13.87,-25.09,-25.09,0,*42
1496073814.18,45246,23.88,74264.8,13.87,-25.19,-25.09,0,*40
1496073815.42,45247,23.88,74270.8,13.87,-24.41,-24.47,0,*46
1496073816.62,45248,23.88,74266.8,13.87,-23.59,-23.59,0,*4F
1496073817.85,45249,23.81,74266.0,13.87,-23.49,-23.43,0,*44
1496073819.09,45250,23.88,74270.8,13.89,-24.25,-24.35,0,*49
1496073820.3,45251,23.81,74266.5,13.87,-24.47,-24.47,0,*47
1496073821.54,45252,23.81,74268.0,13.89,-23.69,-23.69,0,*4A
1496073822.79,45253,23.81,74268.8,13.87,-23.33,-23.33,0,*45
1496073824.0,45254,23.88,74268.3,13.89,-23.13,-23.13,0,*4C
1496073825.26,45255,23.81,74270.0,13.89,-23.85,-23.85,0,*4D
1496073826.53,45256,23.88,74268.8,13.89,-24.21,-24.25,0,*4A
1496073827.78,45257,23.88,74268.3,13.91,-23.89,-23.85,0,*4A
1496073829.02,45258,23.88,74268.3,13.89,-23.53,-23.59,0,*4A
1496073830.27,45259,23.81,74264.8,13.89,-23.23,-23.23,0,*41
1496073831.49,45260,23.88,74268.0,13.89,-23.43,-23.43,0,*4B
1496073832.77,45261,23.88,74270.0,13.91,-23.99,-23.99,0,*43
1496073834.0,45262,23.88,74270.0,13.91,-23.59,-23.59,0,*40
1496073835.26,45263,23.88,74270.8,13.91,-23.13,-23.23,0,*42
1496073836.49,45264,23.88,74268.3,13.91,-23.13,-23.09,0,*4D
1496073837.72,45265,23.81,74266.0,13.93,-23.39,-23.49,0,*42
1496073838.95,45266,23.88,74270.0,13.91,-23.13,-23.13,0,*44
1496073840.19,45267,23.88,74268.5,13.91,-23.13,-23.09,0,*4E
1496073841.42,45268,23.88,74268.5,13.93,-23.53,-23.39,0,*44
1496073842.63,45269,23.88,74270.0,13.93,-23.79,-23.79,0,*49
1496073843.87,45270,23.88,74268.8,13.93,-24.15,-24.15,0,*41
1496073845.13,45271,23.88,74270.3,13.93,-23.23,-23.23,0,*40
1496073846.41,45272,23.88,74264.5,13.91,-23.53,-23.53,0,*41
1496073847.7,45273,23.88,74268.5,13.95,-23.19,-23.19,0,*44
1496073848.98,45274,23.88,74266.8,13.95,-24.11,-23.99,0,*44
1496073850.19,45275,23.81,74266.5,13.93,-25.35,-25.49,0,*4F
1496073851.42,45276,23.88,74266.0,13.93,-23.85,-23.79,0,*44
1496073852.68,45277,23.88,74268.5,13.91,-23.75,-23.85,0,*4B
1496073853.88,45278,23.81,74264.3,13.93,-24.35,-24.35,0,*49
1496073855.12,45279,23.88,74268.3,13.91,-25.87,-26.03,0,*45
1496073856.36,45280,23.81,74266.0,13.91,-26.65,-26.87,0,*40
1496073857.56,45281,23.88,74266.8,13.87,-25.87,-25.91,0,*4D
1496073858.79,45282,23.88,74268.3,13.89,-25.13,-25.03,0,*46
1496073860.04,45283,23.81,74266.0,13.87,-25.29,-25.29,0,*48
1496073861.29,45284,23.88,74266.5,13.87,-25.03,-25.03,0,*4F
1496073862.55,45285,23.81,74266.3,13.85,-25.81,-25.91,0,*4D
1496073863.78,45286,23.88,74270.8,13.81,-25.35,-25.49,0,*40
1496073864.98,45287,23.88,74266.8,13.79,-25.19,-25.19,0,*4D
1496073866.19,45288,23.88,74270.0,13.79,-24.51,-24.57,0,*44
1496073867.47,45289,23.88,74268.8,13.81,-24.21,-24.15,0,*43
1496073868.75,45290,23.88,74266.5,13.81,-24.41,-24.41,0,*4C
1496073869.99,45291,23.88,74266.0,13.85,-24.51,-24.51,0,*49
1496073871.25,45292,23.88,74266.3,13.81,-24.35,-24.21,0,*4B
1496073872.51,45293,23.81,74266.3,13.85,-23.79,-23.69,0,*4A
1496073873.74,45294,23.88,74268.3,13.85,-25.23,-25.13,0,*4F
1496073875.01,45295,23.88,74264.0,13.81,-26.55,-26.81,0,*40
1496073876.25,45296,23.88,74268.5,13.79,-28.59,-28.85,0,*4C
1496073877.53,45297,23.88,74264.0,13.77,-28.43,-28.59,0,*49
1496073878.8,45298,23.88,74266.0,13.73,-28.25,-28.31,0,*4C
1496073880.06,45299,23.88,74266.3,13.69,-26.97,-27.13,0,*4E
1496073881.33,45300,23.88,74266.0,13.69,-27.35,-27.45,0,*45
1496073882.59,45301,23.88,74264.8,13.65,-26.55,-26.61,0,*48
1496073883.82,45302,23.88,74268.5,13.65,-27.07,-27.13,0,*49
1496073885.03,45303,23.88,74270.0,13.63,-26.45,-26.45,0,*4B
1496073886.25,45304,23.88,74266.5,13.59,-26.03,-26.03,0,*45
1496073887.47,45305,23.88,74266.5,13.63,-25.29,-25.13,0,*44
1496073888.71,45306,23.88,74266.8,13.59,-26.13,-26.03,0,*46
1496073889.96,45307,23.88,74266.5,13.63,-25.29,-25.45,0,*45
1496073891.16,45308,23.88,74266.0,13.59,-24.97,-24.97,0,*49
1496073892.37,45309,23.88,74264.8,13.63,-25.61,-25.65,0,*45
1496073893.63,45310,23.88,74266.3,13.59,-26.29,-26.33,0,*4B
1496073894.88,45311,23.88,74266.8,13.57,-26.03,-26.03,0,*4F
1496073896.13,45312,23.88,74266.3,13.55,-26.93,-27.07,0,*42
1496073897.38,45313,23.88,74266.8,13.55,-26.87,-26.93,0,*4A
1496073898.61,45314,23.88,74266.0,13.53,-26.61,-26.55,0,*49
1496073899.89,45315,23.88,74266.5,13.51,-26.77,-26.77,0,*4D
1496073901.16,45316,23.88,74264.8,13.51,-27.45,-27.45,0,*4E
1496073902.39,45317,23.88,74266.0,13.49,-27.29,-27.35,0,*4B
1496073903.66,45318,23.88,74266.5,13.47,-27.19,-27.39,0,*45
1496073904.89,45319,23.88,74264.5,13.45,-26.93,-27.13,0,*4D
1496073906.15,45320,23.88,74264.0,13.45,-26.29,-26.29,0,*4E
1496073907.43,45321,23.88,74266.8,13.43,-25.75,-25.75,0,*49
1496073908.71,45322,23.88,74270.0,13.43,-25.97,-25.97,0,*4A
1496073909.94,45323,23.88,74264.3,13.43,-25.39,-25.39,0,*4B
1496073911.19,45324,23.88,74264.8,13.43,-24.41,-24.57,0,*4B
1496073912.42,45325,23.88,74266.0,13.43,-24.47,-24.47,0,*4D
1496073913.65,45326,23.88,74264.8,13.47,-24.05,-24.05,0,*4A
1496073914.9,45327,23.88,74264.0,13.45,-23.85,-23.95,0,*48
1496073916.15,45328,23.88,74266.5,13.45,-23.99,-23.99,0,*46
1496073917.38,45329,23.88,74266.5,13.47,-24.51,-24.51,0,*45
1496073918.67,45330,23.88,74266.0,13.47,-24.25,-24.41,0,*4F
1496073919.9,45331,23.88,74270.3,13.47,-25.23,-25.49,0,*40
1496073921.12,45332,23.88,74268.5,13.45,-26.61,-26.71,0,*4C
1496073922.39,45333,23.88,74268.3,13.43,-26.55,-26.71,0,*4C
1496073923.64,45334,23.88,74266.8,13.45,-26.55,-26.55,0,*4B
1496073924.87,45335,23.88,74268.5,13.43,-25.13,-25.23,0,*4F
1496073926.12,45336,23.88,74266.0,13.43,-24.61,-24.71,0,*4E
1496073927.35,45337,23.88,74270.3,13.43,-24.31,-24.47,0,*4F
1496073928.61,45338,23.88,74268.3,13.43,-24.25,-24.31,0,*44
1496073929.88,45339,23.88,74270.0,13.43,-23.99,-23.99,0,*40
1496073931.14,45340,23.88,74264.8,13.43,-24.71,-24.77,0,*48
1496073932.4,45341,23.88,74268.8,13.43,-24.41,-24.57,0,*48
1496073933.65,45342,23.88,74268.0,13.43,-24.41,-24.47,0,*4A
1496073934.88,45343,23.88,74264.5,13.43,-24.47,-24.57,0,*4C
1496073936.11,45344,23.88,74268.8,13.43,-25.09,-25.39,0,*49
1496073937.33,45345,23.88,74264.8,13.47,-25.19,-25.19,0,*4F
1496073938.54,45346,23.88,74264.0,13.43,-24.93,-24.97,0,*4C
1496073939.75,45347,23.88,74268.5,13.45,-25.09,-25.13,0,*44
1496073941.03,45348,23.88,74264.3,13.43,-24.71,-24.71,0,*46
1496073942.29,45349,23.88,74268.0,13.43,-24.41,-24.47,0,*41
1496073943.56,45350,23.88,74264.8,13.43,-25.45,-25.55,0,*4E
1496073944.84,45351,23.88,74268.3,13.43,-25.45,-25.55,0,*4F
1496073946.09,45352,23.88,74268.5,13.43,-25.97,-25.91,0,*4B
1496073947.33,45353,23.88,74266.5,13.41,-26.03,-26.17,0,*4B
1496073948.56,45354,23.88,74270.8,13.37,-26.81,-26.87,0,*4E
1496073949.81,45355,23.88,74266.8,13.35,-26.17,-26.23,0,*4C
1496073951.02,45356,23.88,74268.5,13.33,-26.03,-26.03,0,*4E
1496073952.28,45357,23.88,74266.5,13.33,-26.13,-26.13,0,*4F
1496073953.53,45358,23.88,74268.3,13.31,-26.23,-26.29,0,*48
1496073954.75,45359,23.88,74270.0,13.33,-26.23,-26.29,0,*4B
1496073955.99,45360,23.88,74270.5,13.29,-26.33,-26.49,0,*4D
1496073957.22,45361,23.88,74270.3,13.29,-26.33,-26.45,0,*40
1496073958.46,45362,23.88,74270.3,13.29,-26.33,-26.45,0,*43
1496073959.74,45363,23.88,74270.0,13.27,-26.17,-26.29,0,*40
1496073960.97,45364,23.88,74268.5,13.25,-26.07,-26.17,0,*49
1496073962.22,45365,23.88,74268.5,13.25,-26.55,-26.77,0,*49
1496073963.47,45366,23.88,74268.0,13.25,-26.55,-26.71,0,*4C
1496073964.7,45367,23.88,74268.0,13.25,-26.71,-26.87,0,*42
1496073965.95,45368,23.88,74266.0,13.21,-26.29,-26.45,0,*4A
1496073967.21,45369,23.88,74270.5,13.17,-26.29,-26.39,0,*45
1496073968.47,45370,23.88,74266.5,13.17,-26.33,-26.39,0,*46
1496073969.75,45371,23.88,74264.8,13.17,-26.29,-26.29,0,*4D
1496073970.98,45372,23.88,74266.0,13.17,-26.49,-26.65,0,*40
1496073972.25,45373,23.88,74264.8,13.17,-26.55,-26.55,0,*4F
1496073973.48,45374,23.88,74266.3,13.13,-26.23,-26.23,0,*4C
1496073974.74,45375,23.88,74270.3,13.13,-26.33,-26.45,0,*4C
1496073975.99,45376,23.88,74264.0,13.11,-26.71,-26.71,0,*4C
1496073977.21,45377,23.88,74268.0,13.11,-26.23,-26.33,0,*4C
1496073978.45,45378,23.88,74264.0,13.09,-26.49,-26.65,0,*45
1496073979.73,45379,23.88,74266.8,13.09,-26.55,-26.81,0,*43
1496073980.99,45380,23.88,74264.3,13.05,-26.81,-26.87,0,*46
1496073982.28,45381,23.88,74268.8,13.05,-26.71,-26.81,0,*4E
1496073983.5,45382,23.88,74266.3,13.03,-26.71,-26.87,0,*4D
1496073984.73,45383,23.88,74264.8,13.03,-26.55,-26.87,0,*4A
1496073985.99,45384,23.88,74266.0,13.01,-27.39,-27.55,0,*4A
1496073987.23,45385,23.88,74268.3,12.99,-27.29,-27.39,0,*40
1496073988.51,45386,23.88,74266.8,12.97,-27.35,-27.45,0,*4B
1496073989.76,45387,23.88,74268.3,12.95,-27.35,-27.35,0,*4F
1496073991.02,45388,23.88,74266.8,12.95,-25.55,-25.55,0,*40
1496073992.26,45389,23.88,74266.3,12.95,-25.71,-25.65,0,*44
1496073993.53,45390,23.88,74268.0,12.97,-25.65,-25.71,0,*4E
1496073994.75,45391,23.88,74268.3,12.95,-25.29,-25.19,0,*4B
1496073995.99,45392,23.88,74266.0,12.97,-24.57,-24.57,0,*49
1496073997.24,45393,23.88,74264.3,12.95,-24.15,-24.21,0,*4D
1496073998.47,45394,23.88,74264.3,12.97,-23.89,-23.89,0,*4F
1496073999.71,45395,23.88,74268.5,12.97,-24.05,-24.05,0,*4E
1496074000.92,45396,23.88,74264.3,12.99,-24.77,-24.77,0,*43
1496074002.16,45397,23.88,74266.8,12.99,-25.81,-25.91,0,*43
1496074003.42,45398,23.88,74264.8,12.95,-25.71,-25.71,0,*41
1496074004.68,45399,23.88,74264.3,12.97,-25.45,-25.49,0,*4E
1496074005.97,45400,23.88,74264.0,12.97,-25.71,-25.97,0,*4D
1496074007.21,45401,23.88,74266.5,12.95,-25.65,-25.71,0,*43
1496074008.42,45402,23.88,74264.3,12.95,-25.49,-25.49,0,*45
1496074009.68,45403,23.88,74266.8,12.95,-25.81,-25.81,0,*44
1496074010.91,45404,23.88,74266.5,12.95,-25.65,-25.71,0,*46
1496074012.17,45405,23.88,74266.0,12.95,-25.81,-25.81,0,*42
1496074013.42,45406,23.88,74262.3,12.89,-25.75,-25.81,0,*47
1496074014.66,45407,23.88,74264.5,12.91,-26.39,-26.39,0,*44
1496074015.9,45408,23.88,74264.3,12.91,-26.87,-26.93,0,*4E
1496074017.15,45409,23.88,74264.0,12.89,-27.39,-27.45,0,*48
1496074018.38,45410,23.88,74264.0,12.87,-27.07,-27.13,0,*40
1496074019.61,45411,23.88,74264.3,12.85,-26.65,-26.77,0,*45
1496074020.84,45412,23.88,74266.0,12.83,-26.39,-26.49,0,*44
1496074022.07,45413,23.88,74266.5,12.83,-25.39,-25.39,0,*42
1496074023.35,45414,23.88,74260.0,12.83,-24.41,-24.41,0,*45
1496074024.57,45415,23.88,74262.5,12.83,-24.93,-24.93,0,*44
1496074025.84,45416,23.88,74266.0,12.83,-24.87,-25.03,0,*4A
1496074027.07,45417,23.88,74266.0,12.83,-24.77,-24.77,0,*46
1496074028.27,45418,23.88,74266.8,12.85,-24.35,-24.35,0,*4F
1496074029.52,45419,23.88,74266.5,12.85,-24.87,-24.87,0,*4E
1496074030.79,45420,23.88,74266.3,12.87,-24.11,-24.11,0,*46
1496074032.07,45421,23.88,74264.5,12.87,-24.11,-24.15,0,*43
1496074033.34,45422,23.88,74266.5,12.87,-23.99,-23.99,0,*44
1496074034.61,45423,23.88,74264.5,12.87,-24.67,-24.67,0,*45
1496074035.88,45424,23.88,74266.5,12.87,-24.15,-24.15,0,*42
1496074037.15,45425,23.88,74266.0,12.87,-23.95,-23.95,0,*43
1496074038.4,45426,23.88,74264.8,12.89,-23.95,-23.95,0,*4E
1496074039.66,45427,23.88,74264.5,12.89,-24.41,-24.41,0,*4F
1496074040.87,45428,23.88,74266.3,12.89,-24.61,-24.57,0,*45
1496074042.12,45429,23.88,74264.5,12.91,-24.35,-24.41,0,*4B
1496074043.38,45430,23.88,74268.0,12.89,-24.11,-24.11,0,*49
1496074044.6,45431,23.88,74266.8,12.91,-23.89,-23.89,0,*41
1496074045.8,45432,23.88,74264.5,12.89,-24.57,-24.57,0,*4B
1496074047.03,45433,23.88,74266.8,12.91,-24.57,-24.51,0,*45
1496074048.32,45434,23.88,74266.5,12.91,-24.21,-24.25,0,*40
1496074049.59,45435,23.88,74270.0,12.91,-24.21,-24.11,0,*46
1496074050.83,45436,23.88,74266.0,12.91,-23.75,-23.75,0,*46
1496074052.1,45437,23.88,74264.8,12.91,-23.65,-23.65,0,*47
1496074053.3,45438,23.88,74270.0,12.95,-23.59,-23.39,0,*4A
1496074054.51,45439,23.88,74264.3,12.95,-23.59,-23.43,0,*46
1496074055.79,45440,23.88,74266.5,12.97,-24.15,-24.15,0,*41
1496074057.08,45441,23.88,74266.5,12.97,-24.83,-24.71,0,*4D
1496074058.34,45442,23.88,74266.5,12.97,-24.67,-24.51,0,*46
1496074059.6,45443,23.88,74266.0,12.95,-24.83,-24.71,0,*4D
1496074060.83,45444,23.88,74266.0,12.95,-24.05,-23.99,0,*45
1496074062.09,45445,23.88,74264.3,12.97,-23.75,-23.69,0,*49
1496074063.37,45446,23.88,74264.8,12.97,-24.15,-24.15,0,*47
1496074064.6,45447,23.88,74264.3,12.97,-25.49,-25.35,0,*4D
1496074065.83,45448,23.88,74260.8,12.95,-24.67,-24.57,0,*48
1496074067.06,45449,23.88,74264.0,12.95,-24.67,-24.51,0,*4F
1496074068.27,45450,23.88,74268.5,12.95,-24.47,-24.31,0,*43
1496074069.54,45451,23.88,74264.3,12.95,-24.71,-24.71,0,*43
1496074070.74,45452,23.88,74264.3,12.95,-24.57,-24.51,0,*46
1496074071.97,45453,23.88,74266.5,12.91,-25.39,-25.35,0,*49
1496074073.23,45454,23.88,74266.0,12.91,-24.71,-24.93,0,*4E
1496074074.51,45455,23.88,74264.3,12.91,-25.55,-25.55,0,*43
1496074075.8,45456,23.88,74264.5,12.91,-25.71,-25.71,0,*40
1496074077.03,45457,23.88,74266.3,12.89,-25.39,-25.45,0,*43
1496074078.24,45458,23.88,74266.0,12.89,-25.13,-25.23,0,*44
1496074079.45,45459,23.88,74266.8,12.89,-25.09,-25.09,0,*46
1496074080.65,45460,23.88,74266.5,12.89,-24.97,-24.93,0,*48
1496074081.93,45461,23.88,74266.3,12.87,-24.41,-24.25,0,*41
1496074083.21,45462,23.88,74266.0,12.87,-23.95,-23.85,0,*41
1496074084.48,45463,23.88,74264.3,12.87,-23.65,-23.53,0,*44
1496074085.74,45464,23.88,74266.5,12.89,-23.49,-23.49,0,*48
1496074086.99,45465,23.88,74264.3,12.89,-23.95,-23.95,0,*49
1496074088.27,45466,23.88,74264.3,12.91,-24.41,-24.41,0,*43
1496074089.51,45467,23.88,74266.5,12.91,-24.93,-24.87,0,*47
1496074090.72,45468,23.88,74266.0,12.89,-25.13,-25.13,0,*44
1496074091.96,45469,23.88,74264.0,12.89,-25.61,-25.55,0,*42
1496074093.18,45470,23.88,74264.3,12.87,-25.23,-25.23,0,*43
1496074094.42,45471,23.88,74266.3,12.85,-24.71,-24.51,0,*42
1496074095.64,45472,23.88,74268.5,12.87,-24.57,-24.57,0,*41
1496074096.84,45473,23.88,74266.0,12.85,-24.97,-24.97,0,*42